SWA668 KPHL-KSTL

Flight info

Callsign SWA668
Flight time N/A
Altitude 38000
Route MXE PENSY J110 VHP AARCH2
Aircraft B738/M-SADE2E3GIJ4RWZ/LB1D1

Departure

Time N/A
Airport Philadelphia International Airport (KPHL)

Arrival

Time 2026-05-08 02:01
Airport St. Louis Lambert International Airport (KSTL)
Time Latitude Longitude Altitude Speed Heading
2026-05-08 01:08 39.90007 -84.77531 38037 ft 346 kts 267°
2026-05-08 01:09 39.89710 -84.83781 38031 ft 345 kts 267°
2026-05-08 01:09 39.89414 -84.90021 38022 ft 345 kts 267°
2026-05-08 01:10 39.89115 -84.96262 38020 ft 345 kts 267°
2026-05-08 01:10 39.88812 -85.02500 38021 ft 345 kts 267°
2026-05-08 01:11 39.88506 -85.08738 38016 ft 346 kts 267°
2026-05-08 01:11 39.88195 -85.14991 38017 ft 346 kts 267°
2026-05-08 01:12 39.87934 -85.20185 38010 ft 346 kts 267°
2026-05-08 01:12 39.87565 -85.27472 38011 ft 347 kts 267°
2026-05-08 01:13 39.87297 -85.32702 38010 ft 348 kts 267°
2026-05-08 01:13 39.86971 -85.38984 38009 ft 348 kts 267°
2026-05-08 01:14 39.86642 -85.45277 38007 ft 349 kts 267°
2026-05-08 01:14 39.86309 -85.51574 38009 ft 348 kts 267°
2026-05-08 01:15 39.85973 -85.57874 38008 ft 349 kts 267°
2026-05-08 01:15 39.85635 -85.64150 38005 ft 349 kts 267°
2026-05-08 01:16 39.85290 -85.70471 38010 ft 350 kts 267°
2026-05-08 01:16 39.84943 -85.76801 38008 ft 351 kts 267°
2026-05-08 01:17 39.84590 -85.83151 38013 ft 352 kts 267°
2026-05-08 01:17 39.84235 -85.89486 38012 ft 353 kts 267°
2026-05-08 01:18 39.83993 -85.93757 38004 ft 354 kts 267°
2026-05-08 01:18 39.83671 -85.99382 38012 ft 355 kts 267°
2026-05-08 01:19 39.83303 -86.05797 38014 ft 355 kts 267°
2026-05-08 01:19 39.82931 -86.12208 38009 ft 356 kts 267°
2026-05-08 01:20 39.82554 -86.18626 38011 ft 355 kts 267°
2026-05-08 01:20 39.82175 -86.25029 38006 ft 355 kts 267°
2026-05-08 01:21 39.81793 -86.31425 38009 ft 354 kts 266°
2026-05-08 01:21 39.81188 -86.37776 38010 ft 355 kts 260°
2026-05-08 01:22 39.79764 -86.43892 38016 ft 356 kts 256°
2026-05-08 01:22 39.78247 -86.50015 38018 ft 355 kts 256°
2026-05-08 01:23 39.76739 -86.56122 38015 ft 355 kts 257°
2026-05-08 01:23 39.75237 -86.62219 38018 ft 354 kts 257°
2026-05-08 01:24 39.73733 -86.68322 38023 ft 354 kts 257°
2026-05-08 01:24 39.72231 -86.74401 38015 ft 353 kts 256°
2026-05-08 01:25 39.70735 -86.80445 38013 ft 353 kts 256°
2026-05-08 01:25 39.69233 -86.86499 38024 ft 351 kts 256°
2026-05-08 01:26 39.67729 -86.92544 38016 ft 351 kts 256°
2026-05-08 01:26 39.66224 -86.98577 38022 ft 351 kts 256°
2026-05-08 01:27 39.64720 -87.04594 38017 ft 350 kts 256°
2026-05-08 01:27 39.63215 -87.10604 38009 ft 350 kts 256°
2026-05-08 01:28 39.61716 -87.16570 38014 ft 350 kts 256°
2026-05-08 01:28 39.60201 -87.22583 38010 ft 351 kts 256°
2026-05-08 01:29 39.58679 -87.28611 38010 ft 352 kts 256°
2026-05-08 01:29 39.57150 -87.34650 38008 ft 353 kts 256°
2026-05-08 01:30 39.55615 -87.40701 38010 ft 354 kts 256°
2026-05-08 01:30 39.54071 -87.46766 38010 ft 354 kts 256°
2026-05-08 01:31 39.52532 -87.52800 38009 ft 356 kts 256°
2026-05-08 01:31 39.50979 -87.58870 38008 ft 356 kts 256°
2026-05-08 01:31 39.50196 -87.61933 37796 ft 360 kts 256°
2026-05-08 01:32 39.49406 -87.65022 37356 ft 360 kts 256°
2026-05-08 01:32 39.48618 -87.68085 36776 ft 357 kts 256°
2026-05-08 01:32 39.47834 -87.71128 36214 ft 356 kts 256°
2026-05-08 01:32 39.47052 -87.74167 35570 ft 356 kts 256°
2026-05-08 01:33 39.46267 -87.77216 34899 ft 358 kts 256°
2026-05-08 01:33 39.45477 -87.80280 34223 ft 359 kts 255°
2026-05-08 01:33 39.44682 -87.83356 33544 ft 361 kts 255°
2026-05-08 01:33 39.43883 -87.86447 32895 ft 362 kts 256°
2026-05-08 01:34 39.43089 -87.89513 32429 ft 358 kts 255°
2026-05-08 01:34 39.42299 -87.92555 31937 ft 355 kts 256°
2026-05-08 01:34 39.41527 -87.95526 31459 ft 352 kts 256°
2026-05-08 01:34 39.40738 -87.98562 30975 ft 349 kts 256°
2026-05-08 01:35 39.39977 -88.01486 30509 ft 347 kts 256°
2026-05-08 01:35 39.39211 -88.04427 30039 ft 344 kts 256°
2026-05-08 01:35 39.38468 -88.07343 29690 ft 338 kts 257°
2026-05-08 01:35 39.37751 -88.10241 29349 ft 342 kts 257°
2026-05-08 01:36 39.37021 -88.13216 29002 ft 352 kts 257°
2026-05-08 01:36 39.36267 -88.16264 28637 ft 358 kts 256°
2026-05-08 01:36 39.35504 -88.19319 28261 ft 356 kts 257°
2026-05-08 01:36 39.34739 -88.22347 27894 ft 353 kts 256°
2026-05-08 01:37 39.33953 -88.25339 27531 ft 350 kts 256°
2026-05-08 01:37 39.33160 -88.28303 27175 ft 347 kts 256°
2026-05-08 01:37 39.32381 -88.31211 26827 ft 345 kts 256°
2026-05-08 01:37 39.31597 -88.34133 26477 ft 343 kts 256°
2026-05-08 01:38 39.30819 -88.37038 26129 ft 342 kts 256°
2026-05-08 01:38 39.30044 -88.39933 25784 ft 341 kts 256°
2026-05-08 01:38 39.29272 -88.42821 25441 ft 340 kts 256°
2026-05-08 01:38 39.28500 -88.45706 25098 ft 339 kts 256°
2026-05-08 01:39 39.27729 -88.48584 24753 ft 339 kts 256°
2026-05-08 01:39 39.26959 -88.51458 24408 ft 339 kts 256°
2026-05-08 01:39 39.26188 -88.54333 24065 ft 338 kts 256°
2026-05-08 01:39 39.25417 -88.57200 23723 ft 338 kts 256°
2026-05-08 01:40 39.24647 -88.60066 23379 ft 338 kts 256°
2026-05-08 01:40 39.23887 -88.62890 23042 ft 337 kts 256°
2026-05-08 01:40 39.23118 -88.65743 22701 ft 336 kts 256°
2026-05-08 01:40 39.22350 -88.68582 22356 ft 335 kts 256°
2026-05-08 01:41 39.21585 -88.71415 22014 ft 334 kts 256°
2026-05-08 01:41 39.20820 -88.74246 21677 ft 332 kts 256°
2026-05-08 01:41 39.20060 -88.77055 21335 ft 331 kts 256°
2026-05-08 01:41 39.19304 -88.79849 21001 ft 330 kts 256°
2026-05-08 01:42 39.18548 -88.82636 20669 ft 329 kts 256°
2026-05-08 01:42 39.17794 -88.85411 20329 ft 327 kts 256°
2026-05-08 01:42 39.17045 -88.88158 19993 ft 322 kts 256°
2026-05-08 01:42 39.16307 -88.90861 19665 ft 317 kts 256°
2026-05-08 01:43 39.15581 -88.93517 19346 ft 312 kts 256°
2026-05-08 01:43 39.14873 -88.96110 19035 ft 309 kts 256°
2026-05-08 01:43 39.14162 -88.98715 18723 ft 308 kts 257°
2026-05-08 01:43 39.13451 -89.01327 18411 ft 311 kts 256°
2026-05-08 01:44 39.12729 -89.03972 18097 ft 314 kts 256°
2026-05-08 01:44 39.12003 -89.06625 17766 ft 314 kts 256°
2026-05-08 01:44 39.11278 -89.09269 17443 ft 311 kts 256°
2026-05-08 01:44 39.10560 -89.11882 17124 ft 309 kts 256°
2026-05-08 01:45 39.09843 -89.14487 16805 ft 307 kts 256°
2026-05-08 01:45 39.09147 -89.17085 16491 ft 306 kts 258°
2026-05-08 01:45 39.08537 -89.19700 16180 ft 305 kts 259°
2026-05-08 01:45 39.07958 -89.22328 15868 ft 305 kts 259°
2026-05-08 01:46 39.07381 -89.24963 15570 ft 306 kts 259°
2026-05-08 01:46 39.06817 -89.27518 15760 ft 287 kts 259°
2026-05-08 01:46 39.06272 -89.29982 15254 ft 292 kts 259°
2026-05-08 01:46 39.05709 -89.32527 14704 ft 297 kts 259°
2026-05-08 01:47 39.05139 -89.35078 14381 ft 298 kts 259°
2026-05-08 01:47 39.04559 -89.37670 14076 ft 304 kts 258°
2026-05-08 01:47 39.03966 -89.40308 13755 ft 308 kts 258°
2026-05-08 01:48 39.02771 -89.45586 13117 ft 306 kts 258°
2026-05-08 01:48 39.02177 -89.48207 12801 ft 305 kts 258°
2026-05-08 01:48 39.01585 -89.50821 12489 ft 304 kts 258°
2026-05-08 01:48 39.00994 -89.53426 12181 ft 303 kts 258°
2026-05-08 01:49 39.00402 -89.56030 11871 ft 303 kts 258°
2026-05-08 01:49 38.99650 -89.58576 11556 ft 307 kts 247°
2026-05-08 01:49 38.98475 -89.60888 11247 ft 311 kts 234°
2026-05-08 01:49 38.96977 -89.62854 10936 ft 310 kts 229°
2026-05-08 01:50 38.95433 -89.64762 10616 ft 306 kts 229°
2026-05-08 01:50 38.93934 -89.66630 10294 ft 294 kts 229°
2026-05-08 01:50 38.92496 -89.68433 9996 ft 284 kts 229°
2026-05-08 01:50 38.91117 -89.70169 9743 ft 272 kts 229°
2026-05-08 01:51 38.89790 -89.71846 9502 ft 262 kts 228°
2026-05-08 01:51 38.88513 -89.73462 9274 ft 255 kts 228°
2026-05-08 01:51 38.87258 -89.75050 9063 ft 253 kts 228°
2026-05-08 01:51 38.85993 -89.76651 8851 ft 257 kts 227°
2026-05-08 01:52 38.84730 -89.78248 8630 ft 260 kts 227°
2026-05-08 01:52 38.83431 -89.79885 8400 ft 263 kts 227°
2026-05-08 01:52 38.82119 -89.81540 8155 ft 264 kts 227°
2026-05-08 01:52 38.80817 -89.83182 7914 ft 261 kts 227°
2026-05-08 01:53 38.79528 -89.84804 7669 ft 258 kts 227°
2026-05-08 01:53 38.78260 -89.86402 7443 ft 254 kts 227°
2026-05-08 01:53 38.77005 -89.87983 7215 ft 253 kts 227°
2026-05-08 01:53 38.75752 -89.89561 6991 ft 252 kts 227°
2026-05-08 01:54 38.74513 -89.91136 6770 ft 251 kts 227°
2026-05-08 01:54 38.73276 -89.92710 6550 ft 250 kts 227°
2026-05-08 01:54 38.72057 -89.94290 6325 ft 248 kts 232°
2026-05-08 01:54 38.71255 -89.96217 6099 ft 246 kts 251°
2026-05-08 01:55 38.70682 -89.98271 5891 ft 245 kts 251°
2026-05-08 01:55 38.70099 -90.00326 5665 ft 246 kts 250°
2026-05-08 01:55 38.69511 -90.02383 5449 ft 246 kts 250°
2026-05-08 01:55 38.68922 -90.04440 5231 ft 246 kts 250°
2026-05-08 01:56 38.68330 -90.06499 5009 ft 245 kts 250°
2026-05-08 01:56 38.67743 -90.08543 4755 ft 242 kts 250°
2026-05-08 01:56 38.67176 -90.10513 4504 ft 235 kts 250°
2026-05-08 01:56 38.66619 -90.12447 4231 ft 229 kts 250°
2026-05-08 01:57 38.66074 -90.14336 3981 ft 222 kts 249°
2026-05-08 01:57 38.65798 -90.16231 3673 ft 215 kts 278°
2026-05-08 01:57 38.66297 -90.17942 3445 ft 200 kts 293°
2026-05-08 01:57 38.66880 -90.19507 3184 ft 189 kts 294°
2026-05-08 01:58 38.67494 -90.20939 2955 ft 177 kts 298°
2026-05-08 01:58 38.68119 -90.22243 2715 ft 166 kts 299°
2026-05-08 01:58 38.68716 -90.23463 2531 ft 157 kts 300°
2026-05-08 01:58 38.69301 -90.24660 2305 ft 159 kts 300°
2026-05-08 01:59 38.69883 -90.25846 2096 ft 159 kts 300°
2026-05-08 01:59 38.70472 -90.27049 1897 ft 159 kts 301°
2026-05-08 01:59 38.71069 -90.28270 1679 ft 161 kts 300°
2026-05-08 01:59 38.71655 -90.29469 1464 ft 161 kts 300°
2026-05-08 02:00 38.72248 -90.30688 1261 ft 160 kts 301°
2026-05-08 02:00 38.72849 -90.31891 1048 ft 160 kts 302°
2026-05-08 02:00 38.73445 -90.33096 821 ft 160 kts 300°
2026-05-08 02:00 38.74024 -90.34288 623 ft 156 kts 301°
2026-05-08 02:01 38.74536 -90.35331 583 ft 109 kts 302°
2026-05-08 02:01 38.74754 -90.35770 573 ft 68 kts 302°
2026-05-08 02:01 38.74892 -90.36064 564 ft 8 kts 278°
2026-05-08 02:01 38.74879 -90.36107 563 ft 9 kts 228°
2026-05-08 02:02 38.74830 -90.36156 563 ft 0 kts 216°
2026-05-08 02:02 38.74827 -90.36158 563 ft 4 kts 214°
2026-05-08 02:03 38.74764 -90.36167 563 ft 11 kts 151°
2026-05-08 02:03 38.74719 -90.36092 566 ft 11 kts 122°
2026-05-08 02:03 38.74680 -90.36013 568 ft 11 kts 121°
2026-05-08 02:03 38.74633 -90.35919 569 ft 14 kts 121°
2026-05-08 02:04 38.74587 -90.35824 573 ft 11 kts 123°
2026-05-08 02:04 38.74543 -90.35734 575 ft 13 kts 122°
2026-05-08 02:04 38.74483 -90.35644 575 ft 15 kts 158°
2026-05-08 02:04 38.74364 -90.35644 578 ft 19 kts 193°
2026-05-08 02:05 38.74252 -90.35723 577 ft 15 kts 213°
2026-05-08 02:05 38.74184 -90.35743 575 ft 9 kts 147°
2026-05-08 02:05 38.74148 -90.35682 575 ft 9 kts 121°
2026-05-08 02:05 38.74114 -90.35613 575 ft 9 kts 130°
2026-05-08 02:06 38.74053 -90.35626 574 ft 11 kts 217°
2026-05-08 02:06 38.73986 -90.35685 573 ft 13 kts 212°
2026-05-08 02:06 38.73904 -90.35749 571 ft 14 kts 212°
2026-05-08 02:06 38.73851 -90.35793 572 ft 6 kts 214°
2026-05-08 02:07 38.73820 -90.35810 575 ft 5 kts 174°
2026-05-08 02:07 38.73791 -90.35796 572 ft 3 kts 156°
2026-05-08 02:07 38.73783 -90.35791 572 ft 0 kts 154°